Tracking 26321 objects as of 27-Nov-2022
HD Live streaming from Space Station
objects crossing your sky now

STARLINK-5268

Track STARLINK-5268 now!
10-day predictions
STARLINK-5268 is classified as:


NORAD ID: 54192
Int'l Code: 2022-141AM
Perigee: 354.3 km
Apogee: 359.4 km
Inclination: 53.2 °
Period: 91.5 minutes
Semi major axis: 6727 km
RCS: Unknown
Launch date: October 28, 2022
Source: United States (US)
Launch site: AIR FORCE WESTERN TEST RANGE (AFWTR)
aabbcc
Your satellite tracking list
Your tracking list is empty




NASA's NSSDC Master Catalog

Two Line Element Set (TLE):
1 54192U 22141AM  22330.91667824 -.00040753  00000-0 -28713-3 0  9999
2 54192  53.2172 356.0386 0003810   3.9715 104.4170 15.73205137  1306
Source of the keplerian elements: AFSPC